Time,TemperatureF,DewpointF,PressureIn,WindDirection,WindDirectionDegrees,WindSpeedMPH,WindSpeedGustMPH,Humidity,HourlyPrecipIn,Conditions,Clouds,dailyrainin,SoftwareType,DateUTC
2013-09-13 00:03:00,60.8,23.7,29.95,North,350,0.0,3.0,24,0.00,CLR,CLR,0.00,WeatherDisplay:10.37,2013-09-13 04:03:00,
2013-09-13 00:18:00,60.6,24.6,29.98,North,9,2.0,4.0,25,0.00,CLR,CLR,0.00,WeatherDisplay:10.37,2013-09-13 04:18:00,
2013-09-13 00:33:00,60.3,24.3,29.98,North,351,1.0,3.0,25,0.00,CLR,CLR,0.00,WeatherDisplay:10.37,2013-09-13 04:33:00,
2013-09-13 00:48:00,59.9,23.9,29.95,North,9,2.0,4.0,25,0.00,CLR,CLR,0.00,WeatherDisplay:10.37,2013-09-13 04:48:00,
2013-09-13 01:03:00,59.4,24.4,29.98,North,3,1.0,3.0,26,0.00,CLR,CLR,0.00,WeatherDisplay:10.37,2013-09-13 05:03:00,
2013-09-13 01:18:00,58.6,24.7,29.98,North,6,0.0,4.0,27,0.00,CLR,CLR,0.00,WeatherDisplay:10.37,2013-09-13 05:18:00,
2013-09-13 01:33:00,57.9,25.8,30.00,North,4,1.0,1.0,29,0.00,CLR,CLR,0.00,WeatherDisplay:10.37,2013-09-13 05:33:00,
2013-09-13 01:48:00,57.6,27.9,30.00,NW,315,1.0,2.0,32,0.00,CLR,CLR,0.00,WeatherDisplay:10.37,2013-09-13 05:48:00,
2013-09-13 02:03:00,56.8,27.3,30.00,North,2,0.0,2.0,32,0.00,CLR,CLR,0.00,WeatherDisplay:10.37,2013-09-13 06:03:00,
2013-09-13 02:18:00,56.3,28.3,30.00,North,4,0.0,2.0,34,0.00,CLR,CLR,0.00,WeatherDisplay:10.37,2013-09-13 06:18:00,
2013-09-13 02:33:00,56.1,29.5,30.00,WSW,256,0.0,3.0,36,0.00,CLR,CLR,0.00,WeatherDisplay:10.37,2013-09-13 06:33:00,
2013-09-13 02:48:00,55.9,29.3,30.00,WNW,287,0.0,2.0,36,0.00,CLR,CLR,0.00,WeatherDisplay:10.37,2013-09-13 06:48:00,
2013-09-13 03:04:00,56.9,54.9,30.00,WNW,284,0.0,5.0,93,0.00,CLR,CLR,0.00,WeatherDisplay:10.37,2013-09-13 07:04:00,
2013-09-13 03:05:00,56.9,54.9,30.00,WNW,284,0.0,0.0,93,0.00,CLR,CLR,0.00,WeatherDisplay:10.37,2013-09-13 07:05:00,
2013-09-13 03:06:00,56.9,54.9,30.00,WNW,284,0.0,0.0,93,0.00,CLR,CLR,0.00,WeatherDisplay:10.37,2013-09-13 07:06:00,
2013-09-13 03:07:00,56.9,54.9,30.00,WNW,284,0.0,0.0,93,0.00,CLR,CLR,0.00,WeatherDisplay:10.37,2013-09-13 07:07:00,
2013-09-13 03:08:00,56.9,54.9,30.00,WNW,284,0.0,0.0,93,0.00,CLR,CLR,0.00,WeatherDisplay:10.37,2013-09-13 07:08:00,
2013-09-13 03:09:00,56.9,54.9,30.00,WNW,284,0.0,0.0,93,0.00,CLR,CLR,0.00,WeatherDisplay:10.37,2013-09-13 07:09:00,
2013-09-13 03:10:00,56.9,54.9,30.00,WNW,284,0.0,0.0,93,0.00,CLR,CLR,0.00,WeatherDisplay:10.37,2013-09-13 07:10:00,
2013-09-13 03:11:00,56.9,54.9,30.00,WNW,284,0.0,0.0,93,0.00,CLR,CLR,0.00,WeatherDisplay:10.37,2013-09-13 07:11:00,
2013-09-13 03:12:00,56.9,54.9,30.00,WNW,284,0.0,0.0,93,0.00,CLR,CLR,0.00,WeatherDisplay:10.37,2013-09-13 07:12:00,
2013-09-13 03:13:00,56.9,54.9,30.00,WNW,284,0.0,0.0,93,0.00,CLR,CLR,0.00,WeatherDisplay:10.37,2013-09-13 07:13:00,
2013-09-13 03:14:00,56.9,54.9,30.00,WNW,284,0.0,0.0,93,0.00,CLR,CLR,0.00,WeatherDisplay:10.37,2013-09-13 07:14:00,
2013-09-13 03:15:00,56.9,54.9,30.00,WNW,284,0.0,0.0,93,0.00,CLR,CLR,0.00,WeatherDisplay:10.37,2013-09-13 07:15:00,
2013-09-13 03:16:00,56.9,54.9,30.00,WNW,284,0.0,0.0,93,0.00,CLR,CLR,0.00,WeatherDisplay:10.37,2013-09-13 07:16:00,
2013-09-13 03:17:00,56.9,54.9,30.00,WNW,284,0.0,0.0,93,0.00,CLR,CLR,0.00,WeatherDisplay:10.37,2013-09-13 07:17:00,
2013-09-13 03:18:00,56.9,54.9,30.00,WNW,284,0.0,0.0,93,0.00,CLR,CLR,0.00,WeatherDisplay:10.37,2013-09-13 07:18:00,
2013-09-13 08:04:00,56.1,53.5,30.00,North,0,5.8,0.0,91,0.00,CLR,,0.00,WeatherDisplay:10.37,2013-09-13 12:04:00,
2013-09-13 08:05:00,56.1,53.5,30.00,SW,225,0.9,0.0,91,0.00,CLR,,0.00,WeatherDisplay:10.37,2013-09-13 12:05:00,
2013-09-13 08:06:00,56.1,53.5,30.00,SW,225,1.2,0.0,91,0.00,CLR,,0.00,WeatherDisplay:10.37,2013-09-13 12:06:00,
2013-09-13 08:08:00,56.5,53.9,30.00,NW,315,1.6,1.6,91,0.00,CLR,,0.00,WeatherDisplay:10.37,2013-09-13 12:08:00,
2013-09-13 08:13:00,56.8,54.8,30.00,SW,225,1.2,1.2,93,0.00,CLR,,0.00,WeatherDisplay:10.37,2013-09-13 12:13:00,
2013-09-13 08:18:00,57.2,55.2,30.00,NE,45,2.9,2.9,93,0.00,CLR,,0.00,WeatherDisplay:10.37,2013-09-13 12:18:00,
2013-09-13 08:23:00,57.6,55.6,30.00,NW,315,3.6,0.0,93,0.00,CLR,,0.00,WeatherDisplay:10.37,2013-09-13 12:23:00,
2013-09-13 08:28:00,57.9,55.6,30.00,NNE,22,3.5,3.5,92,0.00,CLR,,0.00,WeatherDisplay:10.37,2013-09-13 12:28:00,
2013-09-13 08:33:00,58.3,55.7,30.03,NE,45,2.3,2.3,91,0.00,CLR,,0.00,WeatherDisplay:10.37,2013-09-13 12:33:00,
2013-09-13 08:38:00,58.6,55.7,30.03,NNW,338,2.3,2.3,90,0.00,CLR,,0.00,WeatherDisplay:10.37,2013-09-13 12:38:00,
2013-09-13 08:43:00,58.8,55.3,30.03,North,0,6.9,6.9,88,0.00,CLR,,0.00,WeatherDisplay:10.37,2013-09-13 12:43:00,
2013-09-13 08:48:00,59.2,54.3,30.03,NE,45,8.1,8.1,84,0.00,CLR,,0.00,WeatherDisplay:10.37,2013-09-13 12:48:00,
2013-09-13 08:53:00,59.5,54.0,30.03,East,90,3.6,3.6,82,0.00,CLR,,0.00,WeatherDisplay:10.37,2013-09-13 12:53:00,
2013-09-13 08:58:00,59.7,54.2,30.03,East,90,5.8,5.8,82,0.00,CLR,,0.00,WeatherDisplay:10.37,2013-09-13 12:58:00,
2013-09-13 09:03:00,59.9,54.1,30.03,North,0,3.5,3.5,81,0.00,CLR,,0.00,WeatherDisplay:10.37,2013-09-13 13:03:00,
2013-09-13 09:08:00,60.1,54.2,30.03,North,0,5.8,5.8,81,0.00,CLR,,0.00,WeatherDisplay:10.37,2013-09-13 13:08:00,
2013-09-13 09:13:00,60.3,54.1,30.03,NNW,338,2.3,2.9,80,0.00,CLR,,0.00,WeatherDisplay:10.37,2013-09-13 13:13:00,
2013-09-13 09:18:00,60.4,53.9,30.03,North,0,5.8,5.8,79,0.00,CLR,,0.00,WeatherDisplay:10.37,2013-09-13 13:18:00,
2013-09-13 09:24:00,60.6,54.1,30.03,SE,135,3.5,3.5,79,0.00,CLR,,0.00,WeatherDisplay:10.37,2013-09-13 13:24:00,
2013-09-13 09:29:00,60.8,53.2,30.03,NNE,22,9.2,9.2,76,0.00,CLR,,0.00,WeatherDisplay:10.37,2013-09-13 13:29:00,
2013-09-13 09:34:00,61.0,53.4,30.03,NW,315,3.5,3.5,76,0.00,CLR,,0.00,WeatherDisplay:10.37,2013-09-13 13:34:00,
2013-09-13 09:39:00,61.2,53.5,30.03,East,90,6.7,6.7,76,0.00,CLR,,0.00,WeatherDisplay:10.37,2013-09-13 13:39:00,
2013-09-13 09:44:00,61.5,53.9,30.03,North,0,4.0,4.0,76,0.00,CLR,,0.00,WeatherDisplay:10.37,2013-09-13 13:44:00,
2013-09-13 09:49:00,61.7,53.3,30.03,NNE,22,3.5,3.8,74,0.00,CLR,,0.00,WeatherDisplay:10.37,2013-09-13 13:49:00,
2013-09-13 09:54:00,61.9,53.5,30.03,NE,45,2.6,3.3,74,0.00,CLR,,0.00,WeatherDisplay:10.37,2013-09-13 13:54:00,
2013-09-13 09:59:00,62.1,53.7,30.03,East,90,2.3,3.3,74,0.00,CLR,,0.00,WeatherDisplay:10.37,2013-09-13 13:59:00,
2013-09-13 10:04:00,62.4,54.0,30.03,SE,135,5.8,5.8,74,0.00,CLR,,0.00,WeatherDisplay:10.37,2013-09-13 14:04:00,
2013-09-13 10:09:00,62.8,54.0,30.03,East,90,2.6,2.6,73,0.00,CLR,,0.00,WeatherDisplay:10.37,2013-09-13 14:09:00,
2013-09-13 10:14:00,63.1,53.6,30.03,North,0,4.0,4.0,71,0.00,CLR,,0.00,WeatherDisplay:10.37,2013-09-13 14:14:00,
2013-09-13 10:19:00,63.1,53.6,30.03,NNE,22,4.6,4.6,71,0.00,FEW,,0.00,WeatherDisplay:10.37,2013-09-13 14:19:00,
2013-09-13 10:24:00,63.3,53.8,30.03,East,90,6.9,6.9,71,0.00,FEW,,0.00,WeatherDisplay:10.37,2013-09-13 14:24:00,
2013-09-13 10:29:00,63.5,53.9,30.03,NNW,338,5.8,5.8,71,0.00,FEW,,0.00,WeatherDisplay:10.37,2013-09-13 14:29:00,
2013-09-13 10:34:00,63.9,54.3,30.06,South,180,4.6,4.6,71,0.00,FEW,,0.00,WeatherDisplay:10.37,2013-09-13 14:34:00,
2013-09-13 10:39:00,64.4,54.4,30.06,NW,315,5.8,5.8,70,0.00,FEW,,0.00,WeatherDisplay:10.37,2013-09-13 14:39:00,
2013-09-13 10:44:00,64.6,54.6,30.06,NE,45,5.8,5.8,70,0.00,FEW,,0.00,WeatherDisplay:10.37,2013-09-13 14:44:00,
2013-09-13 10:49:00,65.1,55.1,30.06,North,0,6.0,6.0,70,0.00,FEW,,0.00,WeatherDisplay:10.37,2013-09-13 14:49:00,
2013-09-13 10:54:00,65.3,55.3,30.06,NE,45,6.2,6.2,70,0.00,FEW,,0.00,WeatherDisplay:10.37,2013-09-13 14:54:00,
2013-09-13 10:59:00,65.8,55.8,30.06,East,90,4.6,4.6,70,0.00,FEW,,0.00,WeatherDisplay:10.37,2013-09-13 14:59:00,
2013-09-13 11:04:00,66.2,56.1,30.06,East,90,5.8,5.8,70,0.00,FEW,,0.00,WeatherDisplay:10.37,2013-09-13 15:04:00,
2013-09-13 11:09:00,66.6,56.5,30.06,North,0,8.1,8.1,70,0.00,FEW,,0.00,WeatherDisplay:10.37,2013-09-13 15:09:00,
2013-09-13 11:14:00,66.9,56.8,30.06,South,180,4.6,4.6,70,0.00,FEW,,0.00,WeatherDisplay:10.37,2013-09-13 15:14:00,
2013-09-13 11:19:00,67.8,57.7,30.06,East,90,4.6,4.6,70,0.00,FEW,,0.00,WeatherDisplay:10.37,2013-09-13 15:19:00,
2013-09-13 11:24:00,68.4,58.2,30.06,North,0,5.8,5.8,70,0.00,FEW,,0.00,WeatherDisplay:10.37,2013-09-13 15:24:00,
2013-09-13 11:29:00,68.9,58.7,30.06,NE,45,5.8,5.8,70,0.00,FEW,,0.00,WeatherDisplay:10.37,2013-09-13 15:29:00,
2013-09-13 11:34:00,68.9,58.7,30.06,SE,135,11.5,11.5,70,0.00,FEW,,0.00,WeatherDisplay:10.37,2013-09-13 15:34:00,
2013-09-13 11:39:00,68.4,58.2,30.06,NE,45,5.8,5.8,70,0.00,FEW,,0.00,WeatherDisplay:10.37,2013-09-13 15:39:00,
2013-09-13 11:44:00,69.1,58.9,30.06,NE,45,4.7,4.7,70,0.00,FEW,,0.00,WeatherDisplay:10.37,2013-09-13 15:44:00,
2013-09-13 11:49:00,69.6,59.4,30.03,East,90,6.9,6.9,70,0.00,FEW,,0.00,WeatherDisplay:10.37,2013-09-13 15:49:00,
2013-09-13 11:54:00,70.0,59.3,30.03,NE,45,6.9,6.9,69,0.00,FEW,,0.00,WeatherDisplay:10.37,2013-09-13 15:54:00,
2013-09-13 11:59:00,69.8,59.2,30.03,NE,45,5.8,5.8,69,0.00,FEW,,0.00,WeatherDisplay:10.37,2013-09-13 15:59:00,
2013-09-13 12:04:00,70.3,59.7,30.06,East,90,9.2,9.2,69,0.00,FEW,,0.00,WeatherDisplay:10.37,2013-09-13 16:04:00,
2013-09-13 12:09:00,70.9,60.2,30.06,South,180,4.6,4.6,69,0.00,FEW,,0.00,WeatherDisplay:10.37,2013-09-13 16:09:00,
2013-09-13 12:14:00,71.1,60.4,30.06,North,0,5.8,5.8,69,0.00,FEW,,0.00,WeatherDisplay:10.37,2013-09-13 16:14:00,
2013-09-13 12:19:00,70.7,60.0,30.06,NW,315,8.1,8.1,69,0.00,SCT,,0.00,WeatherDisplay:10.37,2013-09-13 16:19:00,
2013-09-13 12:24:00,70.9,60.2,30.06,NE,45,6.9,6.9,69,0.00,SCT,,0.00,WeatherDisplay:10.37,2013-09-13 16:24:00,
2013-09-13 12:29:00,71.6,60.9,30.06,NNE,22,8.1,8.1,69,0.00,SCT,,0.00,WeatherDisplay:10.37,2013-09-13 16:29:00,
2013-09-13 12:34:00,70.9,60.2,30.03,North,0,3.5,3.5,69,0.00,SCT,,0.00,WeatherDisplay:10.37,2013-09-13 16:34:00,
2013-09-13 12:39:00,72.1,61.4,30.03,North,0,6.9,6.9,69,0.00,SCT,,0.00,WeatherDisplay:10.37,2013-09-13 16:39:00,
2013-09-13 12:44:00,72.5,61.7,30.03,North,0,4.6,4.6,69,0.00,SCT,,0.00,WeatherDisplay:10.37,2013-09-13 16:44:00,
2013-09-13 12:49:00,72.9,62.1,30.03,West,270,6.9,6.9,69,0.00,SCT,,0.00,WeatherDisplay:10.37,2013-09-13 16:49:00,
2013-09-13 12:54:00,73.2,62.4,30.03,North,0,6.9,6.9,69,0.00,SCT,,0.00,WeatherDisplay:10.37,2013-09-13 16:54:00,
2013-09-13 12:59:00,72.3,61.6,30.03,North,0,5.8,5.8,69,0.00,SCT,,0.00,WeatherDisplay:10.37,2013-09-13 16:59:00,
2013-09-13 13:04:00,73.6,62.4,30.03,NNE,22,6.9,6.9,68,0.00,BKN,,0.00,WeatherDisplay:10.37,2013-09-13 17:04:00,
2013-09-13 13:09:00,73.8,62.5,30.03,NE,45,5.8,5.8,68,0.00,BKN,,0.00,WeatherDisplay:10.37,2013-09-13 17:09:00,
2013-09-13 13:14:00,74.3,63.1,30.03,West,270,3.5,3.5,68,0.00,BKN,,0.00,WeatherDisplay:10.37,2013-09-13 17:14:00,
2013-09-13 13:19:00,73.8,62.5,30.00,NW,315,9.2,9.2,68,0.00,BKN,,0.00,WeatherDisplay:10.37,2013-09-13 17:19:00,
2013-09-13 13:24:00,73.0,62.3,30.00,WNW,292,6.9,6.9,69,0.00,BKN,,0.00,WeatherDisplay:10.37,2013-09-13 17:24:00,
2013-09-13 13:29:00,73.8,62.5,30.00,NNW,338,6.9,6.9,68,0.00,BKN,,0.00,WeatherDisplay:10.37,2013-09-13 17:29:00,
2013-09-13 13:34:00,73.4,62.2,30.00,East,90,5.8,5.8,68,0.00,BKN,,0.00,WeatherDisplay:10.37,2013-09-13 17:34:00,
2013-09-13 13:39:00,74.5,63.2,30.00,WSW,248,6.9,6.9,68,0.00,BKN,,0.00,WeatherDisplay:10.37,2013-09-13 17:39:00,
2013-09-13 13:44:00,73.0,62.3,30.00,NE,45,5.8,5.8,69,0.00,BKN,,0.00,WeatherDisplay:10.37,2013-09-13 17:44:00,
2013-09-13 13:49:00,74.5,63.2,30.00,NE,45,5.8,5.8,68,0.00,BKN,,0.00,WeatherDisplay:10.37,2013-09-13 17:49:00,
2013-09-13 13:54:00,73.0,62.3,30.00,East,90,3.5,3.5,69,0.00,BKN,,0.00,WeatherDisplay:10.37,2013-09-13 17:54:00,
2013-09-13 13:59:00,73.0,62.3,30.00,NW,315,3.5,3.5,69,0.00,BKN,,0.00,WeatherDisplay:10.37,2013-09-13 17:59:00,
2013-09-13 14:04:00,73.8,62.5,30.00,NE,45,6.9,6.9,68,0.00,BKN,,0.00,WeatherDisplay:10.37,2013-09-13 18:04:00,
2013-09-13 14:09:00,73.8,62.5,30.00,NNE,22,8.1,8.1,68,0.00,BKN,,0.00,WeatherDisplay:10.37,2013-09-13 18:09:00,
2013-09-13 14:14:00,72.0,61.2,30.00,NNE,22,2.3,2.3,69,0.00,BKN,,0.00,WeatherDisplay:10.37,2013-09-13 18:14:00,
2013-09-13 14:19:00,72.1,61.4,29.98,NW,315,9.2,9.2,69,0.00,BKN,,0.00,WeatherDisplay:10.37,2013-09-13 18:19:00,
2013-09-13 14:24:00,73.9,62.7,29.98,NE,45,6.9,6.9,68,0.00,BKN,,0.00,WeatherDisplay:10.37,2013-09-13 18:24:00,
2013-09-13 14:29:00,73.2,62.4,29.98,NW,315,4.6,4.7,69,0.00,BKN,,0.00,WeatherDisplay:10.37,2013-09-13 18:29:00,
2013-09-13 14:34:00,73.4,62.2,30.00,NE,45,6.9,6.9,68,0.00,FEW,,0.00,WeatherDisplay:10.37,2013-09-13 18:34:00,
2013-09-13 14:39:00,74.3,63.1,30.00,NE,45,5.6,5.6,68,0.00,FEW,,0.00,WeatherDisplay:10.37,2013-09-13 18:39:00,
2013-09-13 14:44:00,76.1,64.8,30.00,WNW,292,5.8,5.8,68,0.00,FEW,,0.00,WeatherDisplay:10.37,2013-09-13 18:44:00,
2013-09-13 14:49:00,77.2,65.8,29.98,NE,45,4.9,4.9,68,0.00,FEW,,0.00,WeatherDisplay:10.37,2013-09-13 18:49:00,
2013-09-13 14:54:00,76.5,65.1,29.98,North,0,2.3,2.3,68,0.00,FEW,,0.00,WeatherDisplay:10.37,2013-09-13 18:54:00,
2013-09-13 14:59:00,76.6,65.3,29.98,NNE,22,5.8,5.8,68,0.00,FEW,,0.00,WeatherDisplay:10.37,2013-09-13 18:59:00,
2013-09-13 15:04:00,76.6,65.3,30.00,West,270,3.5,3.5,68,0.00,FEW,,0.00,WeatherDisplay:10.37,2013-09-13 19:04:00,
2013-09-13 15:09:00,77.0,65.6,30.00,NNE,22,8.1,8.1,68,0.00,FEW,,0.00,WeatherDisplay:10.37,2013-09-13 19:09:00,
2013-09-13 15:14:00,77.4,66.0,30.00,West,270,4.6,4.6,68,0.00,FEW,,0.00,WeatherDisplay:10.37,2013-09-13 19:14:00,
2013-09-13 15:19:00,73.8,62.5,30.00,NE,45,9.2,9.2,68,0.00,SCT,,0.00,WeatherDisplay:10.37,2013-09-13 19:19:00,
2013-09-13 15:24:00,73.6,62.4,30.00,NE,45,11.5,11.5,68,0.00,SCT,,0.00,WeatherDisplay:10.37,2013-09-13 19:24:00,
2013-09-13 15:28:00,75.4,64.1,30.00,NW,315,6.9,6.9,68,0.00,SCT,,0.00,WeatherDisplay:10.37,2013-09-13 19:28:00,
2013-09-13 15:33:00,77.0,65.6,30.00,North,0,5.6,5.6,68,0.00,SCT,,0.00,WeatherDisplay:10.37,2013-09-13 19:33:00,
2013-09-13 15:38:00,75.6,64.3,30.00,NW,315,10.9,10.9,68,0.00,SCT,,0.00,WeatherDisplay:10.37,2013-09-13 19:38:00,
2013-09-13 15:43:00,76.6,65.3,30.00,NW,315,4.6,4.6,68,0.00,SCT,,0.00,WeatherDisplay:10.37,2013-09-13 19:43:00,
2013-09-13 15:48:00,77.0,65.6,30.00,NE,45,4.6,4.6,68,0.00,SCT,,0.00,WeatherDisplay:10.37,2013-09-13 19:48:00,
2013-09-13 15:53:00,74.7,63.4,30.00,NNE,22,4.6,4.6,68,0.00,SCT,,0.00,WeatherDisplay:10.37,2013-09-13 19:53:00,
2013-09-13 15:58:00,73.6,62.4,30.00,NW,315,2.3,2.3,68,0.00,SCT,,0.00,WeatherDisplay:10.37,2013-09-13 19:58:00,
2013-09-13 16:03:00,72.5,61.7,30.00,NNE,22,4.6,4.6,69,0.00,BKN,,0.00,WeatherDisplay:10.37,2013-09-13 20:03:00,
2013-09-13 16:08:00,75.4,64.1,30.00,North,0,3.5,3.5,68,0.00,BKN,,0.00,WeatherDisplay:10.37,2013-09-13 20:08:00,
2013-09-13 16:13:00,74.5,63.2,30.00,SE,135,8.1,8.1,68,0.00,BKN,,0.00,WeatherDisplay:10.37,2013-09-13 20:13:00,
2013-09-13 16:18:00,75.2,63.9,30.00,NNW,338,4.0,4.0,68,0.00,BKN,,0.00,WeatherDisplay:10.37,2013-09-13 20:18:00,
2013-09-13 16:23:00,74.7,63.4,30.00,WNW,292,6.0,6.0,68,0.00,BKN,,0.00,WeatherDisplay:10.37,2013-09-13 20:23:00,
2013-09-13 16:28:00,73.6,62.4,30.00,North,0,5.8,5.8,68,0.00,BKN,,0.00,WeatherDisplay:10.37,2013-09-13 20:28:00,
2013-09-13 16:33:00,74.5,63.2,30.00,WNW,292,6.4,6.4,68,0.00,BKN,,0.00,WeatherDisplay:10.37,2013-09-13 20:33:00,
2013-09-13 16:38:00,72.5,61.7,30.00,West,270,4.6,4.6,69,0.00,BKN,,0.00,WeatherDisplay:10.37,2013-09-13 20:38:00,
2013-09-13 16:43:00,71.1,60.4,30.00,NNE,22,4.6,4.6,69,0.00,BKN,,0.00,WeatherDisplay:10.37,2013-09-13 20:43:00,
2013-09-13 16:48:00,71.1,60.4,30.00,NE,45,2.3,2.3,69,0.00,BKN,,0.00,WeatherDisplay:10.37,2013-09-13 20:48:00,
2013-09-13 16:53:00,71.1,60.4,30.00,NW,315,2.3,2.3,69,0.00,BKN,,0.00,WeatherDisplay:10.37,2013-09-13 20:53:00,
2013-09-13 16:58:00,72.3,61.6,30.00,North,0,6.9,6.9,69,0.00,BKN,,0.00,WeatherDisplay:10.37,2013-09-13 20:58:00,
2013-09-13 17:03:00,72.3,61.6,30.00,NE,45,4.6,4.6,69,0.00,BKN,,0.00,WeatherDisplay:10.37,2013-09-13 21:03:00,
2013-09-13 17:08:00,72.1,61.4,30.00,NE,45,5.8,5.8,69,0.00,BKN,,0.00,WeatherDisplay:10.37,2013-09-13 21:08:00,
2013-09-13 17:13:00,72.0,61.2,30.00,NNE,22,5.8,5.8,69,0.00,BKN,,0.00,WeatherDisplay:10.37,2013-09-13 21:13:00,
2013-09-13 17:18:00,72.3,61.6,30.00,North,0,9.2,9.2,69,0.00,BKN,,0.00,WeatherDisplay:10.37,2013-09-13 21:18:00,
2013-09-13 17:23:00,73.0,62.3,30.00,NE,45,4.6,4.6,69,0.00,BKN,,0.00,WeatherDisplay:10.37,2013-09-13 21:23:00,
2013-09-13 17:28:00,73.4,62.2,30.00,West,270,9.2,9.2,68,0.00,BKN,,0.00,WeatherDisplay:10.37,2013-09-13 21:28:00,
2013-09-13 17:33:00,73.0,62.3,30.00,NE,45,4.6,4.6,69,0.00,SCT,,0.00,WeatherDisplay:10.37,2013-09-13 21:33:00,
2013-09-13 17:38:00,72.3,61.6,30.00,SE,135,2.3,2.4,69,0.00,SCT,,0.00,WeatherDisplay:10.37,2013-09-13 21:38:00,
2013-09-13 17:43:00,72.1,61.4,30.00,NE,45,3.5,3.5,69,0.00,SCT,,0.00,WeatherDisplay:10.37,2013-09-13 21:43:00,
2013-09-13 17:48:00,70.2,59.5,30.03,North,0,3.5,3.5,69,0.00,SCT,,0.00,WeatherDisplay:10.37,2013-09-13 21:48:00,
2013-09-13 17:53:00,69.6,59.4,30.03,NE,45,2.3,2.3,70,0.00,SCT,,0.00,WeatherDisplay:10.37,2013-09-13 21:53:00,
2013-09-13 17:58:00,69.4,59.2,30.03,SE,135,1.2,0.0,70,0.00,SCT,,0.00,WeatherDisplay:10.37,2013-09-13 21:58:00,
2013-09-13 18:03:00,68.7,58.5,30.03,West,270,3.5,3.5,70,0.00,SCT,,0.00,WeatherDisplay:10.37,2013-09-13 22:03:00,
2013-09-13 18:08:00,69.4,59.2,30.03,North,0,4.6,4.6,70,0.00,SCT,,0.00,WeatherDisplay:10.37,2013-09-13 22:08:00,
2013-09-13 18:13:00,70.7,60.0,30.03,West,270,2.3,2.3,69,0.00,SCT,,0.00,WeatherDisplay:10.37,2013-09-13 22:13:00,
2013-09-13 18:18:00,70.7,60.0,30.00,East,90,4.6,4.6,69,0.00,FEW,,0.00,WeatherDisplay:10.37,2013-09-13 22:18:00,
2013-09-13 18:23:00,70.7,60.0,30.00,NNE,22,5.4,5.4,69,0.00,FEW,,0.00,WeatherDisplay:10.37,2013-09-13 22:23:00,
2013-09-13 18:28:00,70.3,59.7,30.00,NNW,338,3.6,3.6,69,0.00,FEW,,0.00,WeatherDisplay:10.37,2013-09-13 22:28:00,
2013-09-13 18:33:00,70.3,59.7,29.98,NNE,22,5.8,5.8,69,0.00,FEW,,0.00,WeatherDisplay:10.37,2013-09-13 22:33:00,
2013-09-13 18:38:00,69.8,59.2,29.98,SE,135,2.9,2.9,69,0.00,FEW,,0.00,WeatherDisplay:10.37,2013-09-13 22:38:00,
2013-09-13 18:43:00,69.3,59.1,29.98,North,0,5.9,5.9,70,0.00,FEW,,0.00,WeatherDisplay:10.37,2013-09-13 22:43:00,
2013-09-13 18:48:00,68.9,58.7,29.98,North,0,3.6,3.6,70,0.00,FEW,,0.00,WeatherDisplay:10.37,2013-09-13 22:48:00,
2013-09-13 18:53:00,68.0,57.8,29.98,NW,315,2.3,2.3,70,0.00,FEW,,0.00,WeatherDisplay:10.37,2013-09-13 22:53:00,
2013-09-13 18:58:00,67.5,57.3,29.98,NW,315,5.6,0.0,70,0.00,FEW,,0.00,WeatherDisplay:10.37,2013-09-13 22:58:00,
2013-09-13 19:03:00,66.9,56.8,30.00,NE,45,3.5,3.5,70,0.00,CLR,,0.00,WeatherDisplay:10.37,2013-09-13 23:03:00,
2013-09-13 19:08:00,66.6,56.5,30.00,North,0,3.8,3.8,70,0.00,CLR,,0.00,WeatherDisplay:10.37,2013-09-13 23:08:00,
2013-09-13 19:13:00,66.2,56.1,30.00,NE,45,2.3,2.3,70,0.00,CLR,,0.00,WeatherDisplay:10.37,2013-09-13 23:13:00,
2013-09-13 19:18:00,65.7,55.6,30.00,NE,45,3.5,3.5,70,0.00,CLR,,0.00,WeatherDisplay:10.37,2013-09-13 23:18:00,
2013-09-13 19:23:00,65.1,55.1,30.00,West,270,2.3,2.3,70,0.00,CLR,,0.00,WeatherDisplay:10.37,2013-09-13 23:23:00,
2013-09-13 19:28:00,64.6,54.6,30.00,North,0,1.6,0.0,70,0.00,CLR,,0.00,WeatherDisplay:10.37,2013-09-13 23:28:00,
2013-09-13 19:33:00,64.2,54.6,30.00,NE,45,0.0,0.0,71,0.00,CLR,,0.00,WeatherDisplay:10.37,2013-09-13 23:33:00,
2013-09-13 19:38:00,63.7,54.1,30.00,NE,45,1.2,0.0,71,0.00,CLR,,0.00,WeatherDisplay:10.37,2013-09-13 23:38:00,
2013-09-13 19:43:00,63.1,53.6,30.00,NW,315,1.2,1.2,71,0.00,CLR,,0.00,WeatherDisplay:10.37,2013-09-13 23:43:00,
2013-09-13 19:48:00,62.6,53.1,30.00,SE,135,0.0,0.0,71,0.00,CLR,,0.00,WeatherDisplay:10.37,2013-09-13 23:48:00,
2013-09-13 19:53:00,61.9,52.4,30.00,West,270,1.2,0.0,71,0.00,CLR,,0.00,WeatherDisplay:10.37,2013-09-13 23:53:00,
2013-09-13 19:58:00,61.3,51.9,30.00,West,270,0.9,0.0,71,0.00,CLR,,0.00,WeatherDisplay:10.37,2013-09-13 23:58:00,
2013-09-13 20:03:00,60.8,51.3,30.00,SW,225,0.0,0.0,71,0.00,CLR,,0.00,WeatherDisplay:10.37,2013-09-14 00:03:00,
2013-09-13 20:08:00,60.4,51.4,30.00,NW,315,0.0,0.0,72,0.00,CLR,,0.00,WeatherDisplay:10.37,2013-09-14 00:08:00,
2013-09-13 20:13:00,59.9,50.8,30.00,North,0,0.0,0.0,72,0.00,CLR,,0.00,WeatherDisplay:10.37,2013-09-14 00:13:00,
2013-09-13 20:18:00,59.2,50.2,30.00,NNW,338,0.0,0.0,72,0.00,CLR,,0.00,WeatherDisplay:10.37,2013-09-14 00:18:00,
2013-09-13 20:23:00,58.6,49.6,30.00,NNW,338,0.0,0.0,72,0.00,CLR,,0.00,WeatherDisplay:10.37,2013-09-14 00:23:00,
2013-09-13 20:28:00,58.1,49.1,30.00,NNW,338,0.0,0.0,72,0.00,CLR,,0.00,WeatherDisplay:10.37,2013-09-14 00:28:00,
2013-09-13 20:33:00,57.9,48.9,30.00,NNW,338,0.0,0.0,72,0.00,CLR,,0.00,WeatherDisplay:10.37,2013-09-14 00:33:00,
2013-09-13 20:38:00,57.4,48.4,30.00,NNW,338,0.0,0.0,72,0.00,CLR,,0.00,WeatherDisplay:10.37,2013-09-14 00:38:00,
2013-09-13 20:43:00,57.0,48.1,30.00,NNW,338,0.0,0.0,72,0.00,CLR,,0.00,WeatherDisplay:10.37,2013-09-14 00:43:00,
2013-09-13 20:48:00,56.8,47.9,30.00,NNW,338,0.0,0.0,72,0.00,CLR,,0.00,WeatherDisplay:10.37,2013-09-14 00:48:00,
2013-09-13 20:53:00,56.5,47.6,30.00,NNW,338,0.0,0.0,72,0.00,CLR,,0.00,WeatherDisplay:10.37,2013-09-14 00:53:00,
2013-09-13 20:58:00,56.3,47.4,30.00,NW,315,0.0,0.0,72,0.00,CLR,,0.00,WeatherDisplay:10.37,2013-09-14 00:58:00,
2013-09-13 21:03:00,56.1,47.2,30.03,North,0,0.0,0.0,72,0.00,CLR,,0.00,WeatherDisplay:10.37,2013-09-14 01:03:00,
2013-09-13 21:08:00,55.9,47.0,30.03,North,0,0.0,0.0,72,0.00,CLR,,0.00,WeatherDisplay:10.37,2013-09-14 01:08:00,
2013-09-13 21:13:00,55.9,47.0,30.03,NNE,22,0.0,0.0,72,0.00,CLR,,0.00,WeatherDisplay:10.37,2013-09-14 01:13:00,
2013-09-13 21:18:00,55.8,46.9,30.03,NNE,22,0.0,0.0,72,0.00,CLR,,0.00,WeatherDisplay:10.37,2013-09-14 01:18:00,
2013-09-13 21:23:00,55.6,46.7,30.03,NNE,22,0.0,0.0,72,0.00,CLR,,0.00,WeatherDisplay:10.37,2013-09-14 01:23:00,
2013-09-13 21:28:00,55.4,46.5,30.03,North,0,0.9,0.0,72,0.00,CLR,,0.00,WeatherDisplay:10.37,2013-09-14 01:28:00,
2013-09-13 21:33:00,55.4,46.5,30.03,North,0,0.0,0.9,72,0.00,CLR,,0.00,WeatherDisplay:10.37,2013-09-14 01:33:00,
2013-09-13 21:38:00,55.6,46.7,30.03,NNW,338,0.0,0.0,72,0.00,CLR,,0.00,WeatherDisplay:10.37,2013-09-14 01:38:00,
2013-09-13 21:43:00,55.2,46.7,30.03,NE,45,0.0,0.0,73,0.00,CLR,,0.00,WeatherDisplay:10.37,2013-09-14 01:43:00,
2013-09-13 21:48:00,55.2,46.7,30.06,NE,45,0.0,0.0,73,0.00,CLR,,0.00,WeatherDisplay:10.37,2013-09-14 01:48:00,
2013-09-13 21:53:00,55.0,46.5,30.06,West,270,0.0,0.0,73,0.00,CLR,,0.00,WeatherDisplay:10.37,2013-09-14 01:53:00,
2013-09-13 21:58:00,54.7,46.2,30.06,West,270,0.0,0.0,73,0.00,CLR,,0.00,WeatherDisplay:10.37,2013-09-14 01:58:00,
2013-09-13 22:03:00,54.3,45.8,30.06,West,270,0.0,0.0,73,0.00,CLR,,0.00,WeatherDisplay:10.37,2013-09-14 02:03:00,
2013-09-13 22:08:00,54.1,45.7,30.06,South,180,1.2,0.0,73,0.00,CLR,,0.00,WeatherDisplay:10.37,2013-09-14 02:08:00,
2013-09-13 22:13:00,54.1,45.7,30.06,East,90,0.0,0.0,73,0.00,CLR,,0.00,WeatherDisplay:10.37,2013-09-14 02:13:00,
2013-09-13 22:18:00,54.0,45.5,30.06,East,90,0.0,0.0,73,0.00,CLR,,0.00,WeatherDisplay:10.37,2013-09-14 02:18:00,
2013-09-13 22:23:00,53.8,45.3,30.06,East,90,0.0,0.0,73,0.00,CLR,,0.00,WeatherDisplay:10.37,2013-09-14 02:23:00,
2013-09-13 22:28:00,53.4,45.0,30.06,East,90,0.0,0.0,73,0.00,CLR,,0.00,WeatherDisplay:10.37,2013-09-14 02:28:00,
2013-09-13 22:33:00,53.2,44.8,30.06,East,90,0.0,0.0,73,0.00,CLR,,0.00,WeatherDisplay:10.37,2013-09-14 02:33:00,
2013-09-13 22:38:00,53.2,44.8,30.06,ENE,68,0.0,0.0,73,0.00,CLR,,0.00,WeatherDisplay:10.37,2013-09-14 02:38:00,
2013-09-13 22:43:00,53.1,44.6,30.06,ENE,68,0.0,0.0,73,0.00,CLR,,0.00,WeatherDisplay:10.37,2013-09-14 02:43:00,
2013-09-13 22:48:00,47.3,15.8,30.06,SSE,155,0.0,0.0,28,0.00,CLR,CLR,0.00,WeatherDisplay:10.37,2013-09-14 02:48:00,
2013-09-13 22:49:00,53.1,44.6,30.06,East,90,0.0,0.0,73,0.00,CLR,,0.00,WeatherDisplay:10.37,2013-09-14 02:49:00,
2013-09-13 22:54:00,52.9,44.5,30.06,East,90,0.0,0.0,73,0.00,CLR,,0.00,WeatherDisplay:10.37,2013-09-14 02:54:00,
2013-09-13 22:59:00,52.9,44.5,30.06,NNE,22,0.0,0.0,73,0.00,CLR,,0.00,WeatherDisplay:10.37,2013-09-14 02:59:00,
2013-09-13 23:03:00,47.3,17.4,30.06,South,169,0.0,0.0,30,0.00,CLR,CLR,0.00,WeatherDisplay:10.37,2013-09-14 03:03:00,
2013-09-13 23:04:00,52.7,44.3,30.06,NE,45,0.0,0.0,73,0.00,CLR,,0.00,WeatherDisplay:10.37,2013-09-14 03:04:00,
2013-09-13 23:09:00,52.5,44.1,30.06,NE,45,0.0,0.0,73,0.00,CLR,,0.00,WeatherDisplay:10.37,2013-09-14 03:09:00,
2013-09-13 23:18:00,47.1,16.4,30.06,SW,216,0.0,1.0,29,0.00,CLR,CLR,0.00,WeatherDisplay:10.37,2013-09-14 03:18:00,
2013-09-13 23:33:00,46.9,17.1,30.06,SW,225,0.0,0.0,30,0.00,CLR,CLR,0.00,WeatherDisplay:10.37,2013-09-14 03:33:00,
2013-09-13 23:48:00,47.3,22.3,30.06,WSW,244,0.0,2.0,37,0.00,CLR,CLR,0.00,WeatherDisplay:10.37,2013-09-14 03:48:00,